Change the Weather History Date:

Wednesday, January 9, 2013

  Actual Average Record
Temperature  
Mean Temperature 30 °F -  
Max Temperature 39 °F 27 °F 53 °F (2002)
Min Temperature 21 °F 13 °F -16 °F (1999)
Degree Days  
Heating Degree Days 35    
Moisture  
Dew Point 26 °F    
Average Humidity 76    
Maximum Humidity 86    
Minimum Humidity 65    
Precipitation  
Precipitation 0.00 in - - ()
Sea Level Pressure  
Sea Level Pressure 30.30 in    
Wind  
Wind Speed 11 mph (West)    
Max Wind Speed 17 mph    
Max Gust Speed 26 mph    
Visibility 10 miles    
Events      
Averages and records for this station are not official NWS values.
T = Trace of Precipitation, MM = Missing Value Source: NWS Daily Summary

Daily Weather History Graph

Daily Weather History Graph

Search for Another Location

Airport or City:

Trip Planner

Search our weather history database for the weather conditions in past years. The results will help you decide how hot, cold, wet, or windy it might be!

Date:

Astronomy

Jan. 09, 2013 Rise Set
Actual Time 7:32 AM CST 4:51 PM CST
Civil Twilight 7:01 AM CST 5:22 PM CST
Nautical Twilight 6:26 AM CST 5:57 PM CST
Astronomical Twilight 5:52 AM CST 6:31 PM CST
Moon 5:12 AM CST (1/9) 2:53 PM CST (1/9)
Length of Visible Light 10h 21m
Length of Day
9h 18m
Waning Crescent, 6% of the Moon is Illuminated
Jan 9
Waning Crescent
Jan 11
New
Jan 18
First Quarter
Jan 26
Full
Feb 3
Last Quarter

Hourly Weather History & Observations

Time (CST) Temp. Windchill Dew Point Humidity Pressure Visibility Wind Dir Wind Speed Gust Speed Precip Events Conditions
12:15 AM 37.4 °F 28.9 °F 30.2 °F 75% 30.01 in 10.0 mi West 13.8 mph - N/A   Clear
12:35 AM 37.4 °F 28.5 °F 30.2 °F 75% 30.01 in 10.0 mi West 15.0 mph - N/A   Clear
12:55 AM 37.4 °F 28.2 °F 30.2 °F 75% 30.02 in 10.0 mi West 16.1 mph - N/A   Clear
1:15 AM 35.6 °F 26.2 °F 28.4 °F 75% 30.04 in 10.0 mi West 15.0 mph 21.9 mph N/A   Clear
1:35 AM 35.6 °F 25.9 °F 28.4 °F 75% 30.05 in 10.0 mi West 16.1 mph - N/A   Clear
1:55 AM 35.6 °F 26.6 °F 28.4 °F 75% 30.06 in 10.0 mi West 13.8 mph - N/A   Clear
2:15 AM 35.6 °F 26.6 °F 28.4 °F 75% 30.07 in 10.0 mi West 13.8 mph - N/A   Clear
2:35 AM 35.6 °F 26.2 °F 28.4 °F 75% 30.09 in 10.0 mi West 15.0 mph - N/A   Clear
2:55 AM 33.8 °F 24.3 °F 28.4 °F 81% 30.10 in 10.0 mi West 13.8 mph - N/A   Clear
3:15 AM 33.8 °F 24.3 °F 28.4 °F 81% 30.10 in 10.0 mi West 13.8 mph - N/A   Clear
3:35 AM 33.8 °F 24.3 °F 28.4 °F 81% 30.10 in 10.0 mi West 13.8 mph - N/A   Clear
3:55 AM 33.8 °F 24.3 °F 28.4 °F 81% 30.11 in 10.0 mi West 13.8 mph - N/A   Clear
4:15 AM 33.8 °F 24.3 °F 26.6 °F 75% 30.13 in 10.0 mi West 13.8 mph - N/A   Clear
4:35 AM 33.8 °F 24.8 °F 26.6 °F 75% 30.13 in 10.0 mi West 12.7 mph - N/A   Clear
4:55 AM 33.8 °F 24.3 °F 26.6 °F 75% 30.14 in 10.0 mi West 13.8 mph - N/A   Clear
5:15 AM 33.8 °F 24.3 °F 26.6 °F 75% 30.16 in 10.0 mi West 13.8 mph - N/A   Clear
5:35 AM 33.8 °F 24.3 °F 26.6 °F 75% 30.17 in 10.0 mi West 13.8 mph - N/A   Clear
5:55 AM 33.8 °F 25.8 °F 26.6 °F 75% 30.17 in 10.0 mi West 10.4 mph - N/A   Clear
6:15 AM 33.8 °F 25.3 °F 26.6 °F 75% 30.17 in 10.0 mi West 11.5 mph - N/A   Clear
6:35 AM 33.8 °F 25.3 °F 26.6 °F 75% 30.18 in 10.0 mi West 11.5 mph - N/A   Clear
6:55 AM 33.8 °F 23.9 °F 28.4 °F 81% 30.19 in 10.0 mi West 15.0 mph 20.7 mph N/A   Clear
7:15 AM 33.8 °F 24.3 °F 28.4 °F 81% 30.20 in 10.0 mi West 13.8 mph 18.4 mph N/A   Clear
7:35 AM 33.8 °F 25.3 °F 26.6 °F 75% 30.21 in 10.0 mi West 11.5 mph - N/A   Clear
7:55 AM 33.8 °F 25.3 °F 26.6 °F 75% 30.22 in 10.0 mi West 11.5 mph - N/A   Clear
8:15 AM 33.8 °F 25.8 °F 26.6 °F 75% 30.23 in 10.0 mi West 10.4 mph - N/A   Clear
8:35 AM 33.8 °F 25.8 °F 26.6 °F 75% 30.23 in 10.0 mi West 10.4 mph - N/A   Clear
8:55 AM 33.8 °F 27.0 °F 26.6 °F 75% 30.26 in 10.0 mi WNW 8.1 mph - N/A   Clear
9:15 AM 33.8 °F 27.7 °F 26.6 °F 75% 30.26 in 10.0 mi West 6.9 mph - N/A   Clear
9:35 AM 35.6 °F 29.2 °F 28.4 °F 75% 30.26 in 10.0 mi WNW 8.1 mph - N/A   Clear
9:55 AM 35.6 °F 29.2 °F 28.4 °F 75% 30.28 in 10.0 mi West 8.1 mph - N/A   Clear
10:15 AM 35.6 °F 27.5 °F 28.4 °F 75% 30.31 in 10.0 mi WSW 11.5 mph - N/A   Clear
10:35 AM 37.4 °F 28.9 °F 28.4 °F 70% 30.32 in 10.0 mi WSW 13.8 mph - N/A   Clear
11:15 AM 37.4 °F 27.8 °F 30.2 °F 75% 30.37 in 10.0 mi WSW 17.3 mph - N/A   Clear
11:55 AM 37.4 °F 28.2 °F 30.2 °F 75% 30.37 in 10.0 mi West 16.1 mph 26.5 mph N/A   Clear
12:15 PM 37.4 °F 27.8 °F 30.2 °F 75% 30.37 in 10.0 mi WSW 17.3 mph 20.7 mph N/A   Clear
12:35 PM 39.2 °F 30.8 °F 30.2 °F 70% 30.38 in 10.0 mi West 15.0 mph 19.6 mph N/A   Clear
12:55 PM 39.2 °F 30.8 °F 30.2 °F 70% 30.37 in 10.0 mi West 15.0 mph 20.7 mph N/A   Clear
1:15 PM 39.2 °F 33.0 °F 30.2 °F 70% 30.38 in 10.0 mi West 9.2 mph - N/A   Clear
1:35 PM 39.2 °F 31.6 °F 28.4 °F 65% 30.38 in 10.0 mi West 12.7 mph - N/A   Clear
1:55 PM 39.2 °F 32.0 °F 28.4 °F 65% 30.39 in 10.0 mi West 11.5 mph - N/A   Clear
2:15 PM 39.2 °F 30.5 °F 28.4 °F 65% 30.41 in 10.0 mi West 16.1 mph - N/A   Clear
2:35 PM 39.2 °F 32.5 °F 28.4 °F 65% 30.41 in 10.0 mi West 10.4 mph - N/A   Clear
2:55 PM 39.2 °F 31.6 °F 28.4 °F 65% 30.39 in 10.0 mi WNW 12.7 mph - N/A   Clear
3:15 PM 39.2 °F 31.2 °F 28.4 °F 65% 30.39 in 10.0 mi WNW 13.8 mph - N/A   Clear
3:35 PM 37.4 °F 30.8 °F 28.4 °F 70% 30.40 in 10.0 mi West 9.2 mph - N/A   Clear
3:55 PM 37.4 °F 34.9 °F 28.4 °F 70% 30.41 in 10.0 mi WNW 3.5 mph - N/A   Clear
4:15 PM 37.4 °F 33.8 °F 28.4 °F 70% 30.40 in 10.0 mi NW 4.6 mph - N/A   Clear
4:35 PM 35.6 °F - 28.4 °F 75% 30.41 in 10.0 mi Calm Calm - N/A   Clear
4:55 PM 33.8 °F 30.8 °F 26.6 °F 75% 30.42 in 10.0 mi WSW 3.5 mph - N/A   Clear
5:15 PM 33.8 °F - 26.6 °F 75% 30.42 in 10.0 mi Calm Calm - N/A   Clear
5:35 PM 32.0 °F - 26.6 °F 80% 30.42 in 10.0 mi Calm Calm - N/A   Clear
5:55 PM 33.8 °F - 26.6 °F 75% 30.42 in 10.0 mi Calm Calm - N/A   Clear
6:15 PM 30.2 °F - 24.8 °F 80% 30.41 in 10.0 mi Calm Calm - N/A   Clear
6:35 PM 30.2 °F - 24.8 °F 80% 30.42 in 10.0 mi Calm Calm - N/A   Clear
7:15 PM 26.6 °F - 21.2 °F 80% 30.42 in 10.0 mi Calm Calm - N/A   Clear
7:35 PM 26.6 °F - 21.2 °F 80% 30.42 in 10.0 mi Calm Calm - N/A   Clear
7:55 PM 24.8 °F 20.5 °F 21.2 °F 86% 30.44 in 10.0 mi SSE 3.5 mph - N/A   Clear
8:15 PM 24.8 °F - 21.2 °F 86% 30.44 in 10.0 mi Calm Calm - N/A   Clear
8:35 PM 26.6 °F - 21.2 °F 80% 30.46 in 10.0 mi Calm Calm - N/A   Clear
8:55 PM 23.0 °F - 19.4 °F 86% 30.45 in 10.0 mi Calm Calm - N/A   Clear
9:15 PM 28.4 °F - 23.0 °F 80% 30.45 in 10.0 mi Calm Calm - N/A   Clear
9:35 PM 26.6 °F - 23.0 °F 86% 30.45 in 10.0 mi Calm Calm - N/A   Clear
9:55 PM 24.8 °F - 19.4 °F 80% 30.45 in 10.0 mi Calm Calm - N/A   Clear
10:15 PM 24.8 °F - 19.4 °F 80% 30.46 in 10.0 mi Calm Calm - N/A   Clear
10:35 PM 24.8 °F - 19.4 °F 80% 30.46 in 10.0 mi Calm Calm - N/A   Clear
10:55 PM 23.0 °F - 17.6 °F 80% 30.46 in 10.0 mi Calm Calm - N/A   Clear
11:15 PM 24.8 °F - 21.2 °F 86% 30.46 in 10.0 mi Calm Calm - N/A   Clear
11:35 PM 21.2 °F - 17.6 °F 86% 30.47 in 10.0 mi Calm Calm - N/A   Clear
11:55 PM 21.2 °F - 17.6 °F 86% 30.47 in 10.0 mi Calm Calm - N/A   Clear